Weather History for Black River Falls, WI

Change the Weather History Date:

Sunday, March 30, 2014

  Actual Average (KLSE) Record (KLSE)
Temperature  
Mean Temperature 42 °F 41 °F  
Max Temperature 63 °F 51 °F 80 °F (1967)
Min Temperature 23 °F 31 °F 2 °F (1969)
Degree Days  
Heating Degree Days 22 24  
Month to date heating degree days 921  
Since 1 July heating degree days 6430  
Cooling Degree Days 0 0  
Month to date cooling degree days 0  
Year to date cooling degree days 0  
Moisture  
Dew Point 29 °F    
Average Humidity 61    
Maximum Humidity 100    
Minimum Humidity 31    
Precipitation  
Precipitation 0.00 in 0.09 in 1.03 in (1934)
Month to date precipitation 1.96  
Year to date precipitation 4.13  
Snow  
Snow 0.00 in 0.20 in 9.50 in (1934)
Month to date snowfall 7.0  
Since 1 July snowfall 41.5  
Snow Depth -    
Sea Level Pressure  
Sea Level Pressure 30.00 in    
Wind  
Wind Speed 4 mph (SSE)    
Max Wind Speed 15 mph    
Max Gust Speed 22 mph    
Visibility 10 miles    
Events      
T = Trace of Precipitation, MM = Missing Value Source: NWS Daily Summary

Daily Weather History Graph

Daily Weather History Graph

Search for Another Location

Airport:

Trip Planner

Search our weather history database for the weather conditions in past years. The results will help you decide how hot, cold, wet, or windy it might be!

Date:

Astronomy

Mar. 30, 2014 Rise Set
Actual Time 6:48 AM CDT 7:28 PM CDT
Civil Twilight 6:19 AM CDT 7:57 PM CDT
Nautical Twilight 5:44 AM CDT 8:32 PM CDT
Astronomical Twilight 5:08 AM CDT 9:08 PM CDT
Moon 6:34 AM CDT (3/30) 7:42 PM CDT (3/30)
Length of Visible Light 13h 38m
Length of Day
12h 40m
Waning Crescent, 0% of the Moon is Illuminated
Mar 30
Waning Crescent
Mar 30
New
Apr 7
First Quarter
Apr 15
Full
Apr 22
Last Quarter

Hourly Weather History & Observations

Time (CDT) Temp. Windchill Dew Point Humidity Pressure Visibility Wind Dir Wind Speed Gust Speed Precip Events Conditions
12:15 AM 32.0 °F - 25.9 °F 78% 30.18 in 10.0 mi Calm Calm - N/A   Clear
12:35 AM 26.8 °F - 24.3 °F 90% 30.17 in 7.0 mi Calm Calm - N/A   Clear
12:55 AM 25.5 °F - 25.3 °F 99% 30.18 in 10.0 mi Calm Calm - N/A   Clear
1:15 AM 25.7 °F - 25.5 °F 99% 30.17 in 10.0 mi Calm Calm - N/A   Clear
1:35 AM 24.8 °F - 24.8 °F 100% 30.17 in 7.0 mi Calm Calm - N/A   Clear
1:55 AM 24.8 °F 20.5 °F 24.8 °F 100% 30.16 in 7.0 mi East 3.5 mph - N/A   Clear
2:15 AM 24.4 °F - 23.7 °F 97% 30.15 in 10.0 mi Calm Calm - N/A   Clear
2:35 AM 23.7 °F - 23.7 °F 100% 30.14 in 7.0 mi Calm Calm - N/A   Clear
2:55 AM 28.2 °F 23.1 °F 27.7 °F 98% 30.11 in 10.0 mi ESE 4.6 mph - N/A   Clear
3:15 AM 30.4 °F 26.9 °F 25.2 °F 81% 30.12 in 10.0 mi SSE 3.5 mph - N/A   Clear
3:35 AM 30.2 °F - 25.2 °F 82% 30.11 in 10.0 mi Calm Calm - N/A   Clear
3:55 AM 29.3 °F - 24.8 °F 83% 30.11 in 10.0 mi Calm Calm - N/A   Clear
4:15 AM 25.9 °F - 25.3 °F 98% 30.11 in 10.0 mi Calm Calm - N/A   Clear
4:35 AM 25.7 °F - 25.7 °F 100% 30.11 in 10.0 mi Calm Calm - N/A   Clear
4:55 AM 26.1 °F - 25.9 °F 99% 30.11 in 10.0 mi Calm Calm - N/A   Clear
5:15 AM 28.0 °F - 27.0 °F 96% 30.11 in 10.0 mi Calm Calm - N/A   Clear
5:35 AM 30.2 °F 26.7 °F 25.9 °F 84% 30.10 in 10.0 mi SE 3.5 mph - N/A   Clear
5:55 AM 31.1 °F 27.7 °F 26.4 °F 83% 30.08 in 10.0 mi ESE 3.5 mph - N/A   Clear
6:15 AM 32.9 °F 29.8 °F 27.5 °F 81% 30.08 in 10.0 mi SE 3.5 mph - N/A   Clear
6:35 AM 33.8 °F 28.6 °F 28.0 °F 79% 30.08 in 10.0 mi SSE 5.8 mph - N/A   Clear
6:55 AM 34.9 °F 29.9 °F 28.4 °F 77% 30.08 in 10.0 mi South 5.8 mph - N/A   Clear
7:15 AM 35.1 °F 30.1 °F 28.4 °F 77% 30.07 in 10.0 mi SSE 5.8 mph - N/A   Clear
7:35 AM 35.6 °F 30.7 °F 28.4 °F 75% 30.08 in 10.0 mi SSE 5.8 mph - N/A   Clear
7:55 AM 36.3 °F 30.8 °F 28.8 °F 74% 30.07 in 10.0 mi South 6.9 mph - N/A   Clear
8:15 AM 37.6 °F 31.6 °F 28.8 °F 70% 30.06 in 10.0 mi SSE 8.1 mph - N/A   Clear
8:35 AM 38.5 °F 32.7 °F 28.4 °F 67% 30.06 in 10.0 mi South 8.1 mph - N/A   Clear
8:55 AM 39.2 °F 32.5 °F 28.4 °F 65% 30.06 in 10.0 mi South 10.4 mph 16.1 mph N/A   Clear
9:15 AM 40.5 °F 34.6 °F 28.8 °F 63% 30.04 in 10.0 mi South 9.2 mph 17.3 mph N/A   Clear
9:35 AM 42.6 °F 35.9 °F 28.9 °F 58% 30.04 in 10.0 mi South 12.7 mph 21.9 mph N/A   Clear
9:55 AM 43.0 °F 36.0 °F 28.9 °F 58% 30.04 in 10.0 mi South 13.8 mph 20.7 mph N/A   Clear
10:15 AM 44.8 °F 38.0 °F 29.3 °F 55% 30.03 in 10.0 mi South 15.0 mph 19.6 mph N/A   Clear
10:35 AM 46.2 °F 40.1 °F 30.0 °F 53% 30.02 in 10.0 mi South 13.8 mph 19.6 mph N/A   Clear
10:55 AM 48.0 °F - 30.2 °F 50% 30.02 in 10.0 mi South 13.8 mph 17.3 mph N/A   Clear
11:15 AM 48.9 °F - 30.7 °F 50% 30.01 in 10.0 mi South 12.7 mph 19.6 mph N/A   Clear
11:35 AM 49.5 °F - 30.7 °F 49% 29.99 in 10.0 mi South 15.0 mph 21.9 mph N/A   Clear
11:55 AM 52.3 °F - 31.1 °F 44% 29.98 in 10.0 mi South 10.4 mph 20.7 mph N/A   Clear
12:15 PM 51.1 °F - 30.4 °F 45% 29.97 in 10.0 mi South 11.5 mph 20.7 mph N/A   Clear
12:35 PM 54.7 °F - 30.6 °F 40% 29.96 in 10.0 mi South 9.2 mph 18.4 mph N/A   Clear
12:55 PM 55.8 °F - 30.4 °F 38% 29.96 in 10.0 mi South 15.0 mph 21.9 mph N/A   Clear
1:15 PM 56.3 °F - 30.7 °F 38% 29.95 in 10.0 mi South 12.7 mph 20.7 mph N/A   Clear
1:35 PM 58.1 °F - 30.6 °F 35% 29.94 in 10.0 mi SSW 10.4 mph 18.4 mph N/A   Clear
1:55 PM 59.2 °F - 30.2 °F 33% 29.94 in 10.0 mi SW 12.7 mph 19.6 mph N/A   Clear
2:15 PM 59.5 °F - 30.0 °F 33% 29.93 in 10.0 mi SSW 12.7 mph 20.7 mph N/A   Clear
2:35 PM 60.8 °F - 30.2 °F 31% 29.92 in 10.0 mi SSW 9.2 mph 17.3 mph N/A   Clear
2:55 PM 61.2 °F - 30.0 °F 31% 29.91 in 10.0 mi SW 13.8 mph 18.4 mph N/A   Clear
3:15 PM 61.9 °F - 30.4 °F 31% 29.91 in 10.0 mi SSW 10.4 mph 17.3 mph N/A   Clear
3:35 PM 60.8 °F - 30.7 °F 32% 29.90 in 10.0 mi SSW 11.5 mph 19.6 mph N/A   Clear
3:55 PM 62.1 °F - 31.1 °F 31% 29.91 in 10.0 mi SSW 12.7 mph 18.4 mph N/A   Clear
4:15 PM 62.2 °F - 31.3 °F 31% 29.90 in 10.0 mi SSW 9.2 mph - N/A   Clear
4:35 PM 62.6 °F - 31.5 °F 31% 29.90 in 10.0 mi SW 8.1 mph 18.4 mph N/A   Clear
4:55 PM 62.8 °F - 31.6 °F 31% 29.90 in 10.0 mi SSW 6.9 mph - N/A   Clear
5:15 PM 62.2 °F - 31.8 °F 32% 29.89 in 10.0 mi SSW 8.1 mph - N/A   Clear
5:35 PM 61.2 °F - 31.6 °F 33% 29.89 in 10.0 mi South 10.4 mph - N/A   Clear
5:55 PM 60.6 °F - 31.8 °F 34% 29.89 in 10.0 mi South 5.8 mph - N/A   Clear
6:15 PM 59.0 °F - 31.8 °F 36% 29.89 in 10.0 mi South 5.8 mph - N/A   Clear
6:35 PM 58.8 °F - 31.8 °F 36% 29.89 in 10.0 mi South 4.6 mph - N/A   Clear
6:55 PM 58.1 °F - 32.0 °F 37% 29.90 in 10.0 mi South 3.5 mph - N/A   Clear
7:15 PM 57.0 °F - 32.2 °F 39% 29.90 in 10.0 mi SSE 3.5 mph - N/A   Clear
7:35 PM 56.3 °F - 32.0 °F 40% 29.90 in 10.0 mi SSE 3.5 mph - N/A   Clear
7:55 PM 55.0 °F - 32.0 °F 42% 29.89 in 10.0 mi Calm Calm - N/A   Clear
8:15 PM 48.4 °F - 31.8 °F 53% 29.89 in 10.0 mi Calm Calm - N/A   Clear
8:35 PM 43.7 °F 41.1 °F 32.0 °F 63% 29.90 in 7.0 mi SE 4.6 mph - N/A   Clear
8:55 PM 41.5 °F 39.6 °F 30.6 °F 65% 29.91 in 10.0 mi East 3.5 mph - N/A   Clear
9:15 PM 39.7 °F - 30.7 °F 70% 29.91 in 10.0 mi Calm Calm - N/A   Clear
9:35 PM 38.5 °F 35.0 °F 30.9 °F 74% 29.91 in 10.0 mi SE 4.6 mph - N/A   Clear
9:55 PM 42.4 °F 39.6 °F 31.3 °F 65% 29.90 in 10.0 mi ESE 4.6 mph - N/A   Clear
10:15 PM 49.6 °F - 32.0 °F 51% 29.89 in 10.0 mi ESE 4.6 mph - N/A   Clear
10:35 PM 50.0 °F - 32.4 °F 51% 29.90 in 10.0 mi ESE 3.5 mph - N/A   Clear
10:55 PM 49.6 °F - 32.5 °F 52% 29.90 in 10.0 mi SE 3.5 mph - N/A   Clear
11:15 PM 48.0 °F - 32.2 °F 54% 29.90 in 10.0 mi East 3.5 mph - N/A   Clear
11:35 PM 40.3 °F 38.2 °F 30.9 °F 69% 29.90 in 10.0 mi ENE 3.5 mph - N/A   Clear
11:55 PM 39.6 °F 37.4 °F 31.5 °F 73% 29.90 in 10.0 mi ENE 3.5 mph - N/A   Clear